DECAYED
Showing default

XIAOXIANG 2, 43155 (Decayed)

Orbit data source: Space-Track

XIAOXIANG 2, 43155 was a payload satellite owned by Changsha Tianyi (CN) in LEO that was launched on Fri, 19 Jan 2018 UTC via a CHANG ZHENG 11 launch vehicle from the Jiuquan Satellite Launch Center, China (JSC). Payloads include a variety of satellites, spacecraft, and rockets equipped with specific instruments for various scientific and technological missions. These include communications satellites like Starlink; space stations such as the ISS; scientific satellites like the Hubble; Earth observation satellites from companies like Planet Labs, Umbra, and HawkEye 360; GPS; miniature CubeSats for education and research; and military/defense satellites.

Not visible in the next 10 days
XIAOXIANG 2 details
Identifier
43155, 2018-008A
Orbit
Decayed
Last TLE update4 months ago
Origin
Flag of CNChangsha Tianyi (CN / PRC)
ManufacturerChangsha Tianyi
MissionDecayed Commercial Communications
Bus & MotorCUBESAT 6U, Unknown motor
Mass8 kg wet, 8 kg dry
Launch date (UTC)
2018-01-19 (7 years ago)
Launch vehicle
CHANG ZHENG 11
Launch site
Jiuquan Satellite Launch Center, China (JSC)
Object type
Payload
Rocket body
Debris
Shape & HBRBox, 0.3 m
Radar Cross Section0.080 m², Medium (>0.1 m² and < 1m²)

Expand to show TLE details & history

TLE from 4 months ago
0 XIAOXIANG 2
1 43155U 18008A   24235.75891043  .18791616  24620-5  29649-3 0  9999
2 43155  97.1927 292.6688 0013149 268.0079  91.9719 16.47546330365397
Epoch: 2024-08-22T18:12Z
Definitive object data (Epoch: 2024-08-22T18:12:49.861Z)
Latitude-0.00002°
Longitude47.91892°
Altitude149.379 km
Speed7.816 km/s
True Right ascension19h 30m 40s
True Declination0° 00' 00"
Sunlit
Object was in full shadow at TLE epoch
Visualization observer readout
Observer readout values are unavailable because the object's trajectory could not be propagated. This is usually caused when the trajectory data is faulty or the object's orbit has decayed.
Visualization observer readout
Observer readout values are unavailable because the object's trajectory could not be propagated. This is usually caused when the trajectory data is faulty or the object's orbit has decayed.
Orbital elements
Apogee altitude151.168 km
Perigee altitude134.019 km
Semi-major axis6,520.73 km
Eccentricity0.0013149
Inclination97.1927°
RAAN292.6688°
Arg. of periapsis268.0079°
True anomaly92.12248°
Mean anomaly91.9719°
Eccentric anomaly92.04719°
Mean motion4.12191 °/min
BSTAR0.00029649
Orbital period87.34 mins
Loading maneuver chart data...
Loading historical data...
Loading historical data...
Loading historical data...
Loading historical data...
Loading historical data...
Loading historical data...
Loading historical data...

XIAOXIANG 2 Visibility forecast

Observer location: undefined°, undefined

This satellite is decayed
Span
Click to sort rows by Start time (UTC) header in descending order
Start Az.
Max El. time (UTC)
Max El. Az.
Max El.
End time (UTC)
End Az.
|